| time (UTC) | temp C | wind direction | speed KPH | gust KPH | rain 1hr cm | rain 24hr cm | rain mn cm | humidity % | barometer mb |
| 20260504120126 | 8 | 170 | 0.0 | 1.6 | 0.00 | 0.00 | 0.00 | 82 | 1014.7 |
| 20260504081749 | 6 | 265 | 0.0 | 0.0 | 0.00 | 0.00 | 0.00 | 89 | 1015.5 |
| 20260504080729 | 6 | 225 | 0.0 | 0.0 | 0.00 | 0.00 | 0.00 | 89 | 1015.3 |
| 20260504070332 | 5 | 225 | 0.0 | 0.0 | 0.00 | 0.00 | 0.00 | 88 | 1015.4 |
| 20260504044854 | 5 | 225 | 0.0 | 0.0 | 0.00 | 0.00 | 0.00 | 76 | 1016.0 |
| 20260504043900 | 6 | 144 | 0.0 | 0.0 | 0.00 | 0.00 | 0.00 | 73 | 1016.0 |
| 20260504042920 | 5 | 144 | 0.0 | 0.0 | 0.00 | 0.00 | 0.00 | 75 | 1015.9 |
| 20260504041923 | 6 | 144 | 0.0 | 0.0 | 0.00 | 0.00 | 0.00 | 76 | 1015.8 |
| 20260504040850 | 6 | 125 | 0.0 | 0.0 | 0.00 | 0.00 | 0.00 | 74 | 1015.8 |
| 20260504035915 | 6 | 116 | 0.0 | 0.0 | 0.00 | 0.00 | 0.00 | 73 | 1015.8 |
| 20260504034930 | 6 | 114 | 0.0 | 1.6 | 0.00 | 0.00 | 0.00 | 74 | 1015.6 |
| 20260504033930 | 6 | 162 | 0.0 | 0.0 | 0.00 | 0.00 | 0.00 | 74 | 1015.6 |
| 20260504032859 | 6 | 162 | 0.0 | 1.6 | 0.00 | 0.00 | 0.00 | 76 | 1015.6 |
| 20260504031923 | 6 | 232 | 0.0 | 0.0 | 0.00 | 0.00 | 0.00 | 77 | 1015.5 |
| 20260504030944 | 6 | 262 | 0.0 | 0.0 | 0.00 | 0.00 | 0.00 | 76 | 1015.5 |
| 20260504025943 | 6 | 262 | 0.0 | 0.0 | 0.00 | 0.00 | 0.00 | 75 | 1015.5 |
| 20260504024940 | 6 | 262 | 0.0 | 0.0 | 0.00 | 0.00 | 0.00 | 74 | 1015.3 |
| 20260504024004 | 7 | 265 | 0.0 | 0.0 | 0.00 | 0.00 | 0.00 | 72 | 1015.3 |
| 20260504021856 | 7 | 277 | 0.0 | 1.6 | 0.00 | 0.00 | 0.00 | 68 | 1015.1 |
| 20260504020838 | 8 | 265 | 0.0 | 0.0 | 0.00 | 0.00 | 0.00 | 66 | 1015.2 |
| 20260504015827 | 8 | 265 | 0.0 | 0.0 | 0.00 | 0.00 | 0.00 | 62 | 1015.0 |
| 20260504014818 | 9 | 259 | 0.0 | 0.0 | 0.00 | 0.00 | 0.00 | 61 | 1014.9 |
| 20260504012727 | 8 | 256 | 0.0 | 6.4 | 0.00 | 0.00 | 0.00 | 61 | 1014.9 |
| 20260504011703 | 9 | 273 | 0.0 | 1.6 | 0.00 | 0.00 | 0.00 | 62 | 1014.8 |
| 20260504010714 | 9 | 265 | 0.0 | 0.0 | 0.00 | 0.00 | 0.00 | 61 | 1014.7 |
| 20260504005727 | 8 | 265 | 0.0 | 1.6 | 0.00 | 0.00 | 0.00 | 62 | 1014.8 |
| 20260504004713 | 9 | 281 | 0.0 | 1.6 | 0.00 | 0.00 | 0.00 | 60 | 1014.7 |
| 20260504002541 | 11 | 260 | 0.0 | 0.0 | 0.00 | 0.00 | 0.00 | 54 | 1014.5 |
| 20260504001522 | 12 | 286 | 0.0 | 0.0 | 0.00 | 0.00 | 0.00 | 49 | 1014.5 |
| 20260504000533 | 13 | 296 | 0.0 | 0.0 | 0.00 | 0.00 | 0.00 | 42 | 1014.5 |
| 20260503235521 | 13 | 221 | 0.0 | 3.2 | 0.00 | 0.00 | 0.00 | 41 | 1014.4 |
| 20260503233445 | 15 | 246 | 0.0 | 4.8 | 0.00 | 0.00 | 0.00 | 37 | 1014.2 |
| 20260503232424 | 16 | 281 | 3.2 | 11.3 | 0.00 | 0.00 | 0.00 | 34 | 1014.2 |
| 20260503231359 | 16 | 264 | 1.6 | 11.3 | 0.00 | 0.00 | 0.00 | 33 | 1014.1 |
| 20260503230353 | 16 | 268 | 4.8 | 8.0 | 0.00 | 0.00 | 0.00 | 34 | 1014.1 |
| 20260503225328 | 16 | 275 | 3.2 | 9.7 | 0.00 | 0.00 | 0.00 | 34 | 1014.0 |
| 20260503224309 | 16 | 271 | 3.2 | 9.7 | 0.00 | 0.00 | 0.00 | 34 | 1014.0 |
| 20260503222219 | 16 | 312 | 3.2 | 16.1 | 0.00 | 0.00 | 0.00 | 33 | 1014.1 |
| 20260503221237 | 16 | 259 | 6.4 | 16.1 | 0.00 | 0.00 | 0.00 | 32 | 1014.2 |
| 20260503220234 | 17 | 324 | 1.6 | 14.5 | 0.00 | 0.00 | 0.00 | 34 | 1014.2 |
| 20260503215225 | 16 | 282 | 3.2 | 14.5 | 0.00 | 0.00 | 0.00 | 34 | 1014.1 |
| 20260503214218 | 16 | 320 | 6.4 | 14.5 | 0.00 | 0.00 | 0.00 | 33 | 1014.1 |
| 20260503213218 | 16 | 300 | 4.8 | 14.5 | 0.00 | 0.00 | 0.00 | 33 | 1014.1 |
| 20260503212212 | 17 | 294 | 3.2 | 8.0 | 0.00 | 0.00 | 0.00 | 33 | 1014.3 |
| 20260503211202 | 17 | 302 | 3.2 | 11.3 | 0.00 | 0.00 | 0.00 | 36 | 1014.3 |
| 20260503210159 | 16 | 240 | 6.4 | 17.7 | 0.00 | 0.00 | 0.00 | 36 | 1014.2 |
| 20260503205202 | 17 | 315 | 3.2 | 12.9 | 0.00 | 0.00 | 0.00 | 36 | 1014.3 |
| 20260503204149 | 17 | 290 | 1.6 | 6.4 | 0.00 | 0.00 | 0.00 | 34 | 1014.3 |
| 20260503203138 | 16 | 320 | 6.4 | 17.7 | 0.00 | 0.00 | 0.00 | 33 | 1014.4 |
| 20260503202125 | 16 | 286 | 3.2 | 12.9 | 0.00 | 0.00 | 0.00 | 35 | 1014.4 |
| 20260503201147 | 16 | 315 | 4.8 | 12.9 | 0.00 | 0.00 | 0.00 | 35 | 1014.5 |
| 20260503200202 | 16 | 264 | 4.8 | 12.9 | 0.00 | 0.00 | 0.00 | 34 | 1014.7 |
| 20260503195156 | 16 | 234 | 4.8 | 11.3 | 0.00 | 0.00 | 0.00 | 36 | 1015.0 |
| 20260503193026 | 16 | 350 | 6.4 | 22.5 | 0.00 | 0.00 | 0.00 | 37 | 1015.3 |
| 20260503190925 | 15 | 227 | 4.8 | 25.7 | 0.00 | 0.00 | 0.00 | 40 | 1015.5 |
| 20260503185941 | 15 | 275 | 6.4 | 25.7 | 0.00 | 0.00 | 0.00 | 38 | 1015.7 |
| 20260503184956 | 15 | 313 | 8.0 | 17.7 | 0.00 | 0.00 | 0.00 | 37 | 1015.8 |
| 20260503182916 | 15 | 332 | 6.4 | 16.1 | 0.00 | 0.00 | 0.00 | 41 | 1015.9 |
| 20260503181910 | 15 | 221 | 4.8 | 16.1 | 0.00 | 0.00 | 0.00 | 40 | 1015.9 |
| 20260503180925 | 14 | 287 | 6.4 | 16.1 | 0.00 | 0.00 | 0.00 | 38 | 1016.1 |
| 20260503174820 | 13 | 248 | 6.4 | 25.7 | 0.00 | 0.00 | 0.00 | 42 | 1016.2 |
| 20260503173802 | 13 | 344 | 8.0 | 19.3 | 0.00 | 0.00 | 0.00 | 39 | 1016.4 |
| 20260503172756 | 13 | 317 | 4.8 | 19.3 | 0.00 | 0.00 | 0.00 | 41 | 1016.4 |
| 20260503171748 | 13 | 167 | 3.2 | 17.7 | 0.00 | 0.00 | 0.00 | 47 | 1016.5 |
| 20260503170736 | 13 | 329 | 8.0 | 17.7 | 0.00 | 0.00 | 0.00 | 47 | 1016.6 |
| 20260503150531 | 11 | 355 | 8.0 | 22.5 | 0.00 | 0.00 | 0.00 | 51 | 1017.8 |